Wind_Speed
29 28 24 25 19 24 28 25 26 27 28 28 28 28 29 30 31 33 31 29 28 25 23 23 22 22 22 22 23 23 23 24 24 15 14 11 11 14 13 17 20 21 21
28 35 33 29 32 33 26 23 24 26 29 32 32 31 31 30 31 32 33 31 30 29 26 26 25 25 25 22 21 21 22 23 24 19 15 15 15 17 17 19 21 20 21
27 33 33 35 38 38 35 27 24 26 26 30 35 37 36 33 32 32 31 31 31 30 29 29 28 27 26 24 22 22 21 22 24 24 20 17 18 18 22 22 21 20 21
28 30 36 40 42 43 38 38 35 30 34 32 33 38 39 39 38 36 34 33 33 33 32 31 31 30 29 26 25 25 23 24 23 26 25 21 19 19 23 23 22 21 19
34 35 35 38 42 44 45 40 42 40 35 36 35 35 40 42 42 42 40 37 35 34 33 32 33 33 32 30 29 28 27 26 25 26 27 22 20 17 22 26 25 23 19
42 43 41 40 42 42 45 46 43 43 45 43 41 41 43 45 43 43 42 41 39 38 37 35 35 35 35 35 34 32 30 29 27 28 28 24 20 19 19 23 24 24 22
40 38 42 41 44 44 43 48 48 48 45 45 44 47 46 44 47 43 42 42 42 41 39 37 35 37 37 36 36 35 34 31 31 29 29 25 21 20 24 22 26 26 25
42 40 41 44 44 46 47 46 51 53 51 49 48 49 49 49 44 43 41 39 40 41 40 38 37 37 37 37 36 35 33 33 31 31 31 28 28 27 28 27 27 27 25
50 41 45 45 47 45 48 49 48 53 56 52 53 51 48 46 55 53 36 36 38 41 42 40 38 39 37 38 39 41 38 38 36 33 34 34 32 31 31 30 28 28 25
52 46 45 48 49 48 47 49 50 48 50 53 55 53 49 48 40 45 26 50 40 41 43 42 41 44 50 48 46 42 42 39 34 39 40 37 37 33 34 30 30 26 27
49 49 46 47 48 48 48 46 48 47 46 46 49 52 49 45 43 49 39 38 37 33 28 33 37 42 48 47 44 42 39 37 43 40 42 40 39 34 29 29 29 27 25
46 45 46 47 46 47 46 45 43 44 41 40 41 46 44 41 39 38 33 34 25 28 34 40 39 38 33 19 25 31 35 39 46 51 47 42 41 31 27 32 31 28 25
40 43 46 46 44 43 43 40 41 39 39 36 36 36 37 37 34 33 32 32 32 30 28 23 29 35 33 33 32 32 34 39 39 35 43 41 42 37 28 33 31 28 29
45 43 44 45 42 40 38 36 38 37 37 35 35 34 30 30 28 27 26 24 22 25 25 28 31 30 26 29 28 26 34 37 29 22 33 31 37 36 32 31 32 28 30
44 48 45 43 38 35 34 32 34 34 35 35 30 29 30 29 25 25 24 23 25 28 25 22 23 26 30 30 28 29 31 31 26 30 34 32 35 36 34 31 31 31 28
31 28 36 35 30 28 27 28 30 30 32 32 30 25 23 21 22 24 24 26 25 20 21 22 24 24 25 24 23 25 27 29 23 23 27 26 26 29 33 31 31 32 29
22 16 13 17 17 16 20 20 16 20 19 25 27 29 29 27 28 25 20 16 15 16 16 15 16 14 11 8 10 11 9 10 13 19 23 23 26 32 34 35 31 35 36
19 5 9 9 13 11 12 20 20 17 16 18 19 16 16 15 15 14 13 12 12 15 17 17 13 12 11 7 5 4 7 7 5 9 6 7 12 21 24 40 26 26 33
30 26 16 8 12 21 26 20 16 22 19 18 21 19 20 20 18 14 13 12 10 10 9 7 7 8 7 6 5 4 8 11 9 6 3 3 8 12 11 7 10 13 12
36 28 20 10 20 30 27 29 20 20 18 24 27 25 23 23 18 19 17 15 11 10 11 13 9 9 7 7 7 9 9 9 7 8 9 7 8 9 10 10 12 13 12
36 33 35 28 22 15 13 28 31 25 18 12 15 18 23 17 12 12 11 9 7 11 11 10 9 8 8 10 10 9 10 11 10 10 13 12 11 13 12 13 13 15 16
28 32 30 32 29 14 13 20 22 19 17 14 11 9 11 7 3 4 4 4 8 9 14 11 8 13 13 13 9 11 12 13 12 10 10 12 13 13 13 13 15 17 19
24 22 23 24 23 27 30 23 19 18 9 5 6 4 3 3 3 2 2 6 9 11 15 17 17 17 15 13 16 17 18 14 15 16 18 14 14 14 14 15 14 13 14
17 18 17 14 15 17 16 12 12 14 10 6 9 8 5 3 6 9 11 11 10 10 9 9 10 13 16 21 22 22 24 20 23 21 17 18 23 22 23 23 25 21 19
14 10 8 14 14 10 10 5 8 7 8 10 9 6 4 5 6 7 9 11 13 15 18 21 22 20 17 15 15 16 18 20 23 24 28 29 29 25 30 27 29 28 23
10 12 15 11 14 13 11 4 6 8 11 12 14 15 15 14 14 15 17 19 22 25 26 26 27 28 28 26 26 27 23 21 20 21 23 25 25 29 32 37 39 35 37
Wind_Direction
263 266 264 282 263 258 252 260 271 273 270 268 259 250 243 241 241 242 241 244 249 250 251 253 253 254 259 263 266 269 275 282 288 298 302 288 288 290 298 303 301 301 300
270 264 263 259 262 270 251 244 254 268 272 268 268 263 255 246 242 244 247 249 250 253 253 254 253 254 262 264 265 271 272 273 277 288 287 287 289 292 293 295 295 299 300
277 272 270 266 268 268 256 244 244 251 263 268 265 264 263 260 256 248 245 246 250 252 253 255 258 256 261 265 269 273 274 272 274 282 285 281 282 287 292 294 297 295 301
285 277 272 263 260 265 259 243 244 244 251 253 259 261 261 262 260 257 253 249 250 253 256 257 258 261 263 264 265 269 269 271 274 278 285 289 284 288 293 298 295 296 297
288 285 278 274 262 259 264 260 247 246 248 251 252 255 257 258 259 260 258 253 253 256 258 258 260 264 266 264 264 265 269 271 270 274 284 285 285 281 289 292 294 294 299
286 280 274 271 271 259 255 257 259 255 252 252 254 254 254 253 254 257 258 259 258 257 257 258 260 262 262 262 262 266 266 267 269 275 277 276 282 273 288 291 293 295 295
284 274 270 264 262 264 256 252 255 255 254 255 256 255 257 254 250 252 256 257 259 259 260 259 259 260 261 263 264 263 261 260 265 269 268 276 263 282 280 287 292 297 300
284 271 265 263 258 256 260 256 252 253 255 256 261 260 263 249 254 244 250 252 257 259 258 259 261 263 263 261 259 259 261 262 266 261 266 271 272 277 278 286 289 291 293
279 272 264 260 256 253 252 257 256 255 255 254 257 262 262 272 273 269 235 246 251 256 256 257 258 258 259 258 255 256 257 260 263 263 263 268 271 270 273 277 284 287 287
276 272 264 261 258 253 251 252 257 258 258 256 255 258 265 270 277 261 273 265 264 248 252 259 262 264 259 253 248 253 256 259 263 274 260 263 268 269 269 274 277 280 283
274 271 266 264 261 255 252 251 254 258 257 258 257 258 262 268 271 267 268 276 275 264 263 274 268 288 295 277 256 253 261 262 266 271 256 258 261 266 261 264 270 272 273
273 269 264 263 262 256 253 250 253 258 258 257 256 256 257 259 262 265 267 274 272 253 271 271 273 275 291 278 266 263 264 267 273 258 253 249 255 247 253 262 263 263 265
274 267 263 259 259 256 252 251 250 252 254 255 255 254 257 261 258 262 269 264 266 272 268 268 274 272 274 280 276 266 266 274 279 260 248 259 258 251 246 254 258 260 263
271 271 264 260 258 255 253 253 248 247 247 249 253 254 252 260 261 268 271 268 258 264 269 272 274 270 266 280 275 269 264 250 293 240 258 262 256 255 245 247 255 255 257
279 274 265 260 257 253 252 256 249 246 244 243 248 249 252 255 256 257 260 263 268 277 274 272 279 274 277 276 267 257 262 266 269 251 250 252 248 246 242 242 244 250 247
296 276 258 254 251 247 248 252 247 247 243 242 244 248 247 249 257 260 268 270 274 269 269 273 273 272 270 271 272 266 267 264 260 253 250 254 247 242 239 246 243 242 249
294 287 274 229 232 238 247 243 249 236 240 243 247 250 251 256 263 269 261 259 257 256 258 258 260 262 260 260 270 262 275 271 278 274 265 262 254 244 247 236 205 224 233
99 150 260 244 211 236 241 223 218 215 230 227 233 253 255 226 229 230 223 234 236 238 240 239 238 244 238 229 263 297 239 288 285 342 251 299 277 241 239 222 223 220 233
74 89 95 161 230 208 218 174 187 210 215 203 193 186 180 191 193 201 197 193 199 196 199 199 181 184 182 167 209 209 253 251 245 225 281 268 261 260 275 263 254 261 264
66 57 59 348 80 99 179 219 210 214 170 169 196 196 206 174 168 173 171 186 207 220 238 252 248 251 235 215 218 230 232 243 239 248 253 261 262 259 255 257 264 260 247
45 52 46 51 60 70 108 101 140 143 161 114 86 116 133 137 146 159 147 155 187 211 210 217 220 231 247 246 239 236 238 240 235 249 256 256 260 268 271 268 264 261 258
38 38 45 39 38 55 69 95 92 90 96 95 95 78 52 31 325 289 309 302 217 218 236 235 245 252 232 230 246 252 259 259 260 265 274 265 251 248 256 263 263 262 263
37 54 39 45 38 34 35 44 87 76 106 68 71 48 325 284 253 335 278 224 236 246 253 261 258 258 264 278 270 272 268 256 248 251 243 241 267 273 273 261 253 259 266
24 22 45 49 45 42 42 59 49 36 38 25 5 4 359 358 347 345 332 322 320 308 297 282 266 267 271 269 272 257 262 273 274 265 260 267 271 258 268 269 263 257 269
61 58 39 20 17 13 23 73 47 30 11 12 9 7 9 344 319 304 304 308 313 317 320 321 321 318 313 303 298 288 282 283 277 275 275 272 262 275 275 258 259 250 255
27 23 13 6 353 358 2 308 330 335 331 327 323 319 314 307 298 293 291 293 297 301 302 303 304 304 301 301 303 303 300 291 286 277 278 277 280 273 268 272 279 276 269
Height
3194 3196 3197 3197 3196 3196 3195 3198 3199 3200 3200 3200 3202 3202 3201 3201 3202 3202 3203 3204 3204 3206 3206 3207 3208 3208 3208 3208 3207 3206 3204 3203 3201 3202 3201 3200 3199 3197 3196 3193 3191 3189 3186
3189 3189 3190 3191 3190 3191 3190 3190 3191 3191 3193 3193 3193 3194 3195 3195 3195 3195 3196 3198 3198 3198 3200 3199 3200 3201 3201 3201 3201 3200 3199 3197 3195 3195 3196 3195 3194 3191 3189 3188 3186 3184 3181
3184 3181 3181 3181 3181 3182 3183 3183 3181 3182 3184 3185 3185 3185 3186 3188 3189 3188 3188 3190 3190 3191 3192 3192 3192 3193 3193 3193 3193 3192 3192 3191 3190 3189 3189 3189 3188 3187 3185 3183 3181 3178 3175
3177 3176 3174 3173 3172 3171 3171 3173 3172 3171 3171 3173 3175 3175 3177 3179 3179 3180 3181 3181 3182 3182 3184 3185 3185 3185 3186 3186 3186 3185 3185 3185 3184 3183 3182 3183 3182 3182 3180 3178 3177 3172 3170
3169 3167 3166 3164 3163 3162 3160 3160 3162 3162 3161 3162 3164 3164 3164 3166 3168 3170 3172 3172 3173 3174 3175 3177 3177 3177 3177 3177 3177 3177 3178 3178 3177 3175 3175 3176 3176 3175 3173 3171 3169 3167 3165
3159 3156 3154 3152 3150 3150 3150 3149 3148 3150 3150 3152 3152 3153 3152 3152 3154 3157 3161 3163 3164 3164 3165 3167 3168 3168 3167 3168 3168 3168 3169 3169 3169 3168 3167 3167 3168 3167 3166 3164 3162 3160 3158
3142 3141 3139 3138 3138 3136 3136 3137 3137 3137 3138 3140 3140 3139 3139 3140 3141 3146 3149 3151 3153 3155 3157 3157 3158 3159 3159 3159 3158 3158 3158 3159 3160 3160 3160 3161 3160 3161 3159 3158 3155 3153 3151
3128 3126 3124 3123 3124 3124 3122 3122 3123 3123 3124 3126 3126 3127 3127 3114 3132 3135 3142 3140 3141 3143 3145 3147 3147 3148 3148 3148 3148 3147 3148 3149 3150 3152 3151 3153 3153 3152 3151 3150 3148 3147 3145
3111 3111 3108 3106 3107 3109 3109 3108 3108 3109 3111 3114 3112 3113 3117 3116 3111 3084 3114 3126 3127 3132 3135 3136 3137 3136 3137 3137 3136 3135 3137 3139 3141 3141 3142 3143 3144 3144 3142 3141 3141 3139 3138
3093 3094 3091 3090 3090 3092 3094 3095 3094 3095 3096 3099 3099 3101 3100 3100 3100 3087 3093 3118 3098 3111 3123 3126 3125 3125 3125 3121 3122 3123 3124 3129 3129 3129 3131 3132 3134 3133 3133 3133 3133 3132 3130
3076 3077 3077 3077 3075 3076 3078 3081 3081 3082 3084 3086 3088 3090 3092 3094 3097 3099 3101 3104 3093 3093 3105 3111 3108 3112 3108 3106 3109 3111 3112 3116 3117 3117 3117 3119 3122 3123 3124 3124 3124 3123 3122
3060 3060 3061 3061 3062 3061 3063 3066 3068 3069 3072 3075 3077 3080 3084 3087 3090 3092 3094 3095 3094 3090 3095 3097 3097 3102 3101 3092 3091 3094 3097 3100 3100 3100 3103 3105 3107 3109 3114 3115 3115 3115 3114
3045 3045 3045 3046 3047 3048 3050 3052 3055 3058 3060 3064 3066 3070 3074 3074 3078 3080 3081 3082 3083 3084 3086 3083 3085 3087 3088 3089 3086 3084 3085 3088 3083 3077 3090 3095 3094 3098 3097 3103 3105 3106 3106
3030 3030 3030 3031 3034 3036 3037 3040 3042 3046 3050 3053 3056 3059 3064 3066 3067 3068 3069 3070 3072 3074 3075 3076 3077 3078 3079 3077 3075 3075 3075 3076 3075 3079 3082 3083 3085 3088 3088 3093 3094 3094 3097
3017 3015 3015 3017 3021 3024 3026 3029 3032 3036 3040 3044 3047 3049 3052 3055 3059 3059 3061 3063 3065 3066 3066 3066 3067 3069 3068 3067 3066 3066 3066 3067 3068 3069 3071 3073 3075 3078 3081 3082 3084 3084 3087
3004 3000 3001 3005 3009 3013 3017 3019 3022 3027 3030 3035 3039 3042 3044 3046 3049 3052 3054 3055 3056 3057 3059 3060 3061 3060 3060 3057 3057 3058 3059 3060 3060 3061 3062 3064 3065 3068 3072 3072 3073 3073 3075
2997 2995 2993 2997 3002 3006 3008 3011 3015 3019 3023 3028 3031 3034 3037 3040 3041 3044 3046 3049 3051 3053 3053 3053 3054 3054 3053 3052 3053 3051 3052 3053 3055 3056 3055 3055 3057 3060 3063 3064 3059 3060 3063
2995 2994 2994 2996 3000 3003 3004 3006 3009 3014 3018 3022 3026 3029 3032 3034 3036 3039 3041 3044 3045 3046 3048 3049 3049 3050 3049 3050 3049 3049 3049 3049 3050 3052 3049 3051 3052 3051 3051 3053 3054 3052 3055
2995 2997 2996 2996 2999 3000 3001 3000 3005 3010 3015 3017 3021 3023 3025 3027 3032 3035 3037 3039 3041 3043 3044 3046 3045 3046 3046 3046 3045 3046 3048 3048 3048 3049 3048 3049 3050 3052 3052 3053 3055 3057 3058
3002 3001 2997 3002 3001 2995 2995 3001 3005 3011 3016 3013 3015 3018 3022 3024 3028 3031 3033 3036 3038 3039 3040 3041 3042 3043 3042 3042 3042 3044 3044 3045 3044 3044 3045 3046 3047 3049 3049 3051 3054 3054 3054
3015 3015 3009 3007 2996 2994 2994 2991 2995 3008 3014 3007 3009 3012 3016 3021 3027 3029 3029 3030 3034 3036 3037 3038 3038 3039 3039 3041 3042 3042 3042 3042 3042 3042 3045 3045 3046 3044 3045 3046 3048 3050 3050
3026 3023 3022 3019 3020 3018 3010 3008 3008 3013 3014 3016 3017 3016 3019 3022 3026 3028 3029 3030 3031 3032 3033 3033 3035 3035 3037 3037 3039 3039 3040 3040 3040 3040 3042 3043 3042 3040 3042 3043 3045 3046 3046
3035 3032 3029 3026 3027 3022 3018 3018 3016 3018 3022 3022 3022 3022 3022 3022 3025 3026 3027 3028 3029 3030 3030 3031 3031 3031 3033 3034 3034 3035 3036 3036 3036 3035 3037 3037 3037 3038 3038 3039 3040 3040 3041
3040 3036 3035 3033 3032 3030 3029 3028 3027 3026 3025 3026 3027 3025 3023 3025 3025 3026 3024 3024 3025 3026 3027 3029 3028 3028 3028 3029 3030 3031 3031 3030 3030 3031 3031 3031 3032 3033 3033 3034 3035 3035 3035
3044 3043 3041 3040 3038 3037 3035 3033 3033 3031 3031 3028 3029 3028 3027 3026 3026 3026 3027 3026 3026 3025 3025 3024 3023 3023 3025 3025 3025 3024 3024 3022 3022 3023 3024 3024 3025 3026 3023 3023 3026 3026 3028
3048 3045 3044 3041 3039 3037 3037 3036 3034 3033 3031 3029 3029 3029 3028 3028 3027 3026 3026 3025 3023 3023 3023 3022 3021 3020 3020 3019 3017 3017 3017 3016 3016 3016 3015 3014 3014 3015 3016 3016 3016 3018 3019